Epoch 2002 Sept. 3.0 TT = JDT 2452520.5 T 2002 Aug. 19.12611 TT MPC q 2.3550875 (2000.0) P Q n 0.14651754 Peri. 4.63558 -0.52521792 -0.80088394 a 3.5634963 Node 117.30803 +0.76997228 -0.59117813 e 0.3391076 Incl. 18.88721 +0.36233800 +0.09535895 P 6.73
m1 = 12.5 + 5 logΔ + 10.0 log r